User: anonymous
Location: Unspecified
(0.0000°N, 0.0000°E)
Time: 09:30:48
(UTC+02:00)
Language:

Cosmos 1315 Rocket - Orbit

View from above orbital plane
View from above orbital plane
View from above satellite
View from above satellite

Ground track
Ground track

The orbit data is extracted from the following two-line orbital elements,

1 12904U 81103B   14242.80240411  .00002359  00000-0  17359-3 0  5726
2 12904 081.1809 000.5511 0029972 180.5418 179.5777 15.02670335339250
Epoch (UTC): 30 August 2014 19:15:27
Eccentricity: 0.0029972
inclination: 81.1809°
perigee height: 538 km
apogee height: 579 km
right ascension of ascending node: 0.5511°
argument of perigee: 180.5418°
revolutions per day: 15.02670335
mean anomaly at epoch: 179.5777°
orbit number at epoch: 33925

The dashed part of the orbit path shows where the satellite is in the earth's shadow,  

DLR